Regional Weather Roundup
Issued by NWS

Home | Current Version | Previous Version | Text Only | Print | Product List | Glossary Off
Versions: 1 2 3 4 5 6 7 8 9 10 11 12 13 14 15 16 17 18 19 20 21 22 23 24 25 26 27 28 29 30 31 32 33 34 35 36 37 38 39 40 41 42 43 44 45 46 47 48 49 50

000
ASUS43 KDMX 301103
RWRIA

WEATHER ROUNDUP FOR IOWA
NATIONAL WEATHER SERVICE DES MOINES IA
600 AM CDT FRI SEP 30 2016

NOTE: "FAIR" INDICATES FEW OR NO CLOUDS BELOW 12,000 FEET WITH NO
SIGNIFICANT WEATHER AND/OR OBSTRUCTIONS TO VISIBILITY.

* - THESE STATIONS ARE NOT NWS STATIONS...THUS NOT UNDER NWS
QUALITY CONTROL.  THEY ALSO DO NOT REPORT WEATHER SUCH
AS PRECIPITATION OR FOG.

IAZ001>003-012>014-020>022-031>034-043>046-301200-
   NORTHWEST IOWA

CITY           SKY/WX    TMP DP  RH WIND       PRES   REMARKS
CARROLL *      CLEAR     46  45  93 NW7       30.31S
CHEROKEE *     CLEAR     42  42 100 NE3       30.33R
DENISON *      CLEAR     45  45 100 CALM      30.30R
LE MARS *      CLEAR     43  41  93 N3        30.33S
SHELDON *      CLEAR     43  43 100 NE5       30.31F
SIOUX CITY     CLEAR     42  41  96 CALM      30.32S
SPENCER        CLEAR     41  41 100 CALM      30.33F
STORM LAKE *     N/A     48  46  93 NE7       30.32S
$$

IAZ055>058-069>071-079>083-090>094-301200-
   SOUTHWEST IOWA

CITY           SKY/WX    TMP DP  RH WIND       PRES   REMARKS
ATLANTIC *     CLEAR     45  45 100 CALM      30.30R
AUDUBON *      CLEAR     45  41  87 CALM      30.31S
CLARINDA *       N/A     46  46 100 MISG      30.29F FOG
COUNCIL BLFS * CLEAR     46  46 100 N7        30.29F
CRESTON *      CLEAR     52  48  87 NE10      30.29R
HARLAN  *      CLEAR     45  45 100 CALM      30.33S
LAMONI         CLEAR     49  47  93 N6        30.26R
RED OAK *      CLEAR     45  45 100 NE5       30.29S
SHENANDOAH *   CLEAR     43  43 100 CALM      30.29S
$$

IAZ047>049-059>061-072>074-084-301200-
   CENTRAL IOWA

CITY           SKY/WX    TMP DP  RH WIND       PRES   REMARKS
AMES           CLEAR     49  48  97 N7        30.29S
ANKENY *         N/A    N/A N/A N/A MISG        N/A
BOONE *        CLEAR     50  48  93 N9        30.29S FOG
CHARITON *       N/A     48  46  93 N6        30.26R
DES MOINES     CLEAR     55  49  80 N9        30.28R
GRINNELL*      CLEAR     51  48  90 N6        30.27S
KNOXVILLE *    CLEAR     54  48  82 N9        30.24S
MARSHALLTOWN   CLEAR     50  48  93 NE6       30.28S
NEWTON *       CLEAR     52  48  87 N10       30.26S
PELLA *        CLEAR     50  47  92 N3        30.26F
PERRY *          N/A     47  47  98 NW6       30.30R
$$

IAZ004>006-015-016-023>025-035-036-301200-
   NORTH CENTRAL IOWA

CITY           SKY/WX    TMP DP  RH WIND       PRES   REMARKS
ALGONA *       CLEAR     45  45 100 N5        30.33F
CLARION *      CLEAR     45  45 100 CALM      30.32S
ESTHERVILLE    CLEAR     41  41 100 N3        30.34S
FORT DODGE *   CLEAR     48  43  81 N3        30.32S
MASON CITY     CLEAR     44  43  96 N7        30.34S
FOREST CITY *    N/A     46  45  93 CALM      30.33S
WEBSTER CITY * CLEAR     45  45 100 N3        30.29S
IOWA FALLS *     N/A     52  48  86 N5        30.31S
$$

IAZ007>011-017>019-026>030-037>042-050>054-066-301200-
   NORTHEAST IOWA

CITY           SKY/WX    TMP DP  RH WIND       PRES   REMARKS
CEDAR RAPIDS   CLEAR     51  50  96 N10       30.24S
CHARLES CITY * CLEAR     50  50 100 N6        30.31F
CLINTON *      CLOUDY    55  53  93 N8        30.22S
DECORAH *      CLOUDY    54  52  94 N5G12     30.31R
DUBUQUE        CLOUDY    55  52  89 NE9       30.25F
MONTICELLO *   MOCLDY    50  48  93 CALM      30.25S
OELWEIN *      CLEAR     50  50 100 NE7       30.30R
WATERLOO       CLEAR     50  47  89 N8        30.28S
$$

IAZ064-065-067-068-078-301200-
   EAST CENTRAL IOWA

CITY           SKY/WX    TMP DP  RH WIND       PRES   REMARKS
DAVENPORT      MOCLDY    55  52  89 N9        30.22S
IOWA CITY      CLEAR     54  49  83 N9        30.25S
MUSCATINE *    CLEAR     54  50  87 N6        30.22S
QUAD CITIES    CLOUDY    59  53  80 N8        30.20S
$$

IAZ062-063-075>077-085>089-095>099-301200-
   SOUTHEAST IOWA

CITY           SKY/WX    TMP DP  RH WIND       PRES   REMARKS
BURLINGTON     PTCLDY    55  53  93 N9        30.19S
FAIRFIELD *    CLEAR     50  46  87 N6        30.22F
FORT MADISON * PTCLDY    54  52  94 CALM      30.19S
KEOKUK *       MOCLDY    55  52  88 N7        30.18F
OSKALOOSA *      N/A     50  48  93 N8        30.25S
OTTUMWA        CLEAR     51  47  86 N9        30.24R
WASHINGTON *     N/A    N/A N/A N/A MISG        N/A
$$

ABBREVIATIONS USED IN REMARKS
   TC - TEMPERATURES IN CELSIUS
  WCI - WIND CHILL INDEX
   HX - HEAT INDEX
  VSB - VISIBILITY
$$





USA.gov is the U.S. government's official web portal to all federal, state and local government web resources and services.